{"data":{"norad_id":54835,"epoch":"2026-05-25T01:59:52.354176Z","epoch_age_seconds":63702,"freshness":"FRESH","line1":"1 54835U 22177R   26145.08324484 -.00000014  00000+0  90141-5 0  9990","line2":"2 54835  43.0025  64.9015 0000789 259.5739 100.5023 15.27575061188603","mean_motion":15.27575061,"eccentricity":7.89e-5,"inclination_deg":43.0025,"raan_deg":64.9015,"arg_perigee_deg":259.5739,"mean_anomaly_deg":100.5023,"bstar":9.0141e-6,"rev_number":18860,"period_min":94.267053499638,"perigee_km":482.52253647245,"apogee_km":483.60523397214,"semimajor_km":6861.2008852223,"source":"CELESTRAK","updated_at":"2026-05-25T13:38:17.722507Z"}}